,,,PA_Meas_PMT16A,,PR_Meas_QMR101_102,,RH_Meas_QMH101,,SR_Meas_QMS101,,TA_Meas_QMH101,,GenWind,,GenWind,
date,time,status,PA,status,PR,status,RH,status,SR,status,TA,status,DirAvg,status,SpdAvg,
2010-10-02, 00:00:05,VALID,1006.38,VALID,0,VALID,103.276,VALID,0.105969,VALID,24.3158,VALID,95,VALID,0.647656,
2010-10-02, 00:01:05,VALID,1006.38,VALID,0,VALID,103.291,VALID,0.105969,VALID,24.2963,VALID,85,VALID,1.26875,
2010-10-02, 00:02:05,VALID,1006.39,VALID,0,VALID,103.291,VALID,0,VALID,24.2768,VALID,61,VALID,0.93125,
2010-10-02, 00:03:05,VALID,1006.38,VALID,0,VALID,103.276,VALID,0,VALID,24.2981,VALID,76,VALID,0.831641,
2010-10-02, 00:04:05,VALID,1006.37,VALID,0,VALID,103.268,VALID,0,VALID,24.2768,VALID,78,VALID,0.751953,
2010-10-02, 00:05:05,VALID,1006.38,VALID,0,VALID,103.283,VALID,0,VALID,24.2768,VALID,70,VALID,0.900781,
2010-10-02, 00:06:05,VALID,1006.35,VALID,0,VALID,103.283,VALID,0,VALID,24.2786,VALID,101,VALID,1.16016,
2010-10-02, 00:07:05,VALID,1006.35,VALID,0,VALID,103.283,VALID,0,VALID,24.2573,VALID,72,VALID,0.95,
2010-10-02, 00:08:05,VALID,1006.31,VALID,0,VALID,103.268,VALID,0.105969,VALID,24.2786,VALID,85,VALID,0.760938,
2010-10-02, 00:09:05,VALID,1006.29,VALID,0,VALID,103.276,VALID,0.105969,VALID,24.2573,VALID,91,VALID,1.19922,
2010-10-02, 00:10:05,VALID,1006.27,VALID,0,VALID,103.291,VALID,0,VALID,24.2591,VALID,87,VALID,0.769922,
2010-10-02, 00:11:05,VALID,1006.23,VALID,0,VALID,103.276,VALID,0,VALID,24.2573,VALID,58,VALID,0.308203,
2010-10-02, 00:12:05,VALID,1006.24,VALID,0,VALID,103.291,VALID,0,VALID,24.2573,VALID,85,VALID,0.879687,
2010-10-02, 00:13:05,VALID,1006.23,VALID,0,VALID,103.291,VALID,0,VALID,24.2786,VALID,78,VALID,0.245703,
2010-10-02, 00:14:05,VALID,1006.23,VALID,0,VALID,103.298,VALID,0,VALID,24.2786,VALID,82,VALID,0.754687,
2010-10-02, 00:15:05,VALID,1006.24,VALID,0,VALID,103.291,VALID,0,VALID,24.2573,VALID,82,VALID,0.162891,
2010-10-02, 00:16:05,VALID,1006.21,VALID,0,VALID,103.291,VALID,0,VALID,24.2573,VALID,109,VALID,0.185547,
2010-10-02, 00:17:05,VALID,1006.22,VALID,0,VALID,103.298,VALID,0,VALID,24.2378,VALID,73,VALID,0.764844,
2010-10-02, 00:18:05,VALID,1006.21,VALID,0,VALID,103.298,VALID,0.105969,VALID,24.2378,VALID,88,VALID,1.12031,
2010-10-02, 00:19:05,VALID,1006.2,VALID,0,VALID,103.298,VALID,0,VALID,24.2786,VALID,90,VALID,1.29219,
2010-10-02, 00:20:05,VALID,1006.19,VALID,0,VALID,103.283,VALID,0.105969,VALID,24.2786,VALID,69,VALID,1.10508,
2010-10-02, 00:21:05,VALID,1006.17,VALID,0,VALID,103.291,VALID,0,VALID,24.2573,VALID,87,VALID,1.14648,
2010-10-02, 00:22:05,VALID,1006.17,VALID,0,VALID,103.291,VALID,0,VALID,24.2573,VALID,106,VALID,1.23125,
2010-10-02, 00:23:05,VALID,1006.16,VALID,0,VALID,103.268,VALID,0.105969,VALID,24.2768,VALID,89,VALID,0.821484,
2010-10-02, 00:24:05,VALID,1006.17,VALID,0,VALID,103.283,VALID,0,VALID,24.2573,VALID,73,VALID,1.23359,
2010-10-02, 00:25:05,VALID,1006.13,VALID,0,VALID,103.283,VALID,0,VALID,24.2573,VALID,74,VALID,0.536719,
2010-10-02, 00:26:05,VALID,1006.12,VALID,0,VALID,103.283,VALID,0,VALID,24.2786,VALID,74,VALID,0.257813,
2010-10-02, 00:27:05,VALID,1006.11,VALID,0,VALID,103.276,VALID,0,VALID,24.2591,VALID,45,VALID,0.467578,
2010-10-02, 00:28:05,VALID,1006.04,VALID,0,VALID,103.26,VALID,0,VALID,24.2378,VALID,45,VALID,0.0316406,
2010-10-02, 00:29:05,VALID,1006.03,VALID,0,VALID,103.253,VALID,0,VALID,24.2378,VALID,45,VALID,0.422266,
2010-10-02, 00:30:05,VALID,1006,VALID,0,VALID,103.276,VALID,0,VALID,24.2378,VALID,47,VALID,0.3625,
2010-10-02, 00:31:05,VALID,1005.98,VALID,0,VALID,103.283,VALID,0,VALID,24.2396,VALID,70,VALID,0.474609,
2010-10-02, 00:32:05,VALID,1005.94,VALID,0,VALID,103.268,VALID,0,VALID,24.2396,VALID,85,VALID,0.421484,
2010-10-02, 00:33:05,VALID,1005.95,VALID,0,VALID,103.268,VALID,0,VALID,24.2183,VALID,85,VALID,0.328516,
2010-10-02, 00:34:05,VALID,1005.92,VALID,0,VALID,103.291,VALID,0,VALID,24.2202,VALID,85,VALID,0.437891,
2010-10-02, 00:35:05,VALID,1005.92,VALID,0,VALID,103.276,VALID,0,VALID,24.2396,VALID,85,VALID,0.319141,
2010-10-02, 00:36:05,VALID,1005.9,VALID,0,VALID,103.276,VALID,0,VALID,24.2183,VALID,85,VALID,0.158203,
2010-10-02, 00:37:05,VALID,1005.89,VALID,0,VALID,103.298,VALID,0,VALID,24.2183,VALID,104,VALID,0.875391,
2010-10-02, 00:38:05,VALID,1005.88,VALID,0,VALID,103.291,VALID,0,VALID,24.2202,VALID,85,VALID,0.761328,
2010-10-02, 00:39:05,VALID,1005.87,VALID,0,VALID,103.298,VALID,0,VALID,24.2183,VALID,81,VALID,1.09336,
2010-10-02, 00:40:05,VALID,1005.86,VALID,0,VALID,103.306,VALID,0,VALID,24.2183,VALID,92,VALID,1.17656,
2010-10-02, 00:41:05,VALID,1005.86,VALID,0,VALID,103.314,VALID,0,VALID,24.2202,VALID,75,VALID,0.812891,
2010-10-02, 00:42:05,VALID,1005.84,VALID,0,VALID,103.298,VALID,0,VALID,24.1988,VALID,80,VALID,0.857422,
2010-10-02, 00:43:05,VALID,1005.83,VALID,0,VALID,103.314,VALID,0.105969,VALID,24.2396,VALID,85,VALID,0.219531,
2010-10-02, 00:44:05,VALID,1005.8,VALID,0,VALID,103.306,VALID,0.105969,VALID,24.1988,VALID,84,VALID,0.55625,
2010-10-02, 00:45:05,VALID,1005.81,VALID,0,VALID,103.306,VALID,0,VALID,24.1988,VALID,83,VALID,0.271094,
2010-10-02, 00:46:05,VALID,1005.77,VALID,0,VALID,103.329,VALID,0,VALID,24.1988,VALID,83,VALID,0.213672,
2010-10-02, 00:47:05,VALID,1005.8,VALID,0,VALID,103.321,VALID,0,VALID,24.1793,VALID,83,VALID,0.308594,
2010-10-02, 00:48:05,VALID,1005.79,VALID,0,VALID,103.291,VALID,0,VALID,24.1988,VALID,83,VALID,0.0433594,
2010-10-02, 00:49:05,VALID,1005.77,VALID,0,VALID,103.321,VALID,0,VALID,24.1599,VALID,67,VALID,0.396484,
2010-10-02, 00:50:05,VALID,1005.78,VALID,0,VALID,103.314,VALID,0,VALID,24.1812,VALID,71,VALID,0.533984,
2010-10-02, 00:51:05,VALID,1005.77,VALID,0,VALID,103.298,VALID,0,VALID,24.2007,VALID,87,VALID,0.850391,
2010-10-02, 00:52:05,VALID,1005.78,VALID,0,VALID,103.321,VALID,0,VALID,24.2025,VALID,83,VALID,0.670703,
2010-10-02, 00:53:05,VALID,1005.77,VALID,0,VALID,103.321,VALID,0,VALID,24.1617,VALID,59,VALID,0.960938,
2010-10-02, 00:54:05,VALID,1005.75,VALID,0,VALID,103.314,VALID,0,VALID,24.183,VALID,77,VALID,0.793359,
2010-10-02, 00:55:05,VALID,1005.74,VALID,0,VALID,103.329,VALID,0,VALID,24.183,VALID,97,VALID,0.536328,
2010-10-02, 00:56:05,VALID,1005.72,VALID,0,VALID,103.344,VALID,0,VALID,24.1617,VALID,93,VALID,0.708203,
2010-10-02, 00:57:05,VALID,1005.69,VALID,0,VALID,103.314,VALID,0,VALID,24.1635,VALID,98,VALID,0.689453,
2010-10-02, 00:58:05,VALID,1005.69,VALID,0,VALID,103.314,VALID,0,VALID,24.1617,VALID,68,VALID,0.6875,
2010-10-02, 00:59:05,VALID,1005.62,VALID,0,VALID,103.321,VALID,0,VALID,24.1635,VALID,78,VALID,0.773047,
2010-10-02, 01:00:05,VALID,1005.65,VALID,0,VALID,103.321,VALID,0,VALID,24.1635,VALID,80,VALID,0.609375,
2010-10-02, 01:01:05,VALID,1005.61,VALID,0,VALID,103.329,VALID,0,VALID,24.1617,VALID,76,VALID,0.691406,
2010-10-02, 01:02:05,VALID,1005.59,VALID,0,VALID,103.329,VALID,0,VALID,24.1422,VALID,74,VALID,0.896094,
2010-10-02, 01:03:05,VALID,1005.57,VALID,0,VALID,103.321,VALID,0,VALID,24.1635,VALID,96,VALID,0.331641,
2010-10-02, 01:04:05,VALID,1005.55,VALID,0,VALID,103.337,VALID,0,VALID,24.1422,VALID,65,VALID,0.443359,
2010-10-02, 01:05:05,VALID,1005.54,VALID,0,VALID,103.306,VALID,0,VALID,24.1422,VALID,57,VALID,0.0914062,
2010-10-02, 01:06:05,VALID,1005.49,VALID,0,VALID,103.329,VALID,0,VALID,24.1227,VALID,57,VALID,0,
2010-10-02, 01:07:05,VALID,1005.47,VALID,0,VALID,103.337,VALID,0,VALID,24.1227,VALID,57,VALID,0.0503906,
2010-10-02, 01:08:05,VALID,1005.46,VALID,0,VALID,103.329,VALID,0,VALID,24.1032,VALID,57,VALID,0,
2010-10-02, 01:09:05,VALID,1005.46,VALID,0,VALID,103.344,VALID,0,VALID,24.1032,VALID,57,VALID,0,
2010-10-02, 01:10:05,VALID,1005.45,VALID,0,VALID,103.329,VALID,0,VALID,24.1032,VALID,57,VALID,0,
2010-10-02, 01:11:05,VALID,1005.42,VALID,0,VALID,103.321,VALID,0,VALID,24.1032,VALID,57,VALID,0,
2010-10-02, 01:12:05,VALID,1005.42,VALID,0,VALID,103.344,VALID,0,VALID,24.1245,VALID,57,VALID,0,
2010-10-02, 01:13:05,VALID,1005.43,VALID,0,VALID,103.344,VALID,0,VALID,24.0837,VALID,57,VALID,0,
2010-10-02, 01:14:05,VALID,1005.39,VALID,0,VALID,103.352,VALID,0,VALID,24.0837,VALID,57,VALID,0,
2010-10-02, 01:15:05,VALID,1005.4,VALID,0,VALID,103.337,VALID,0,VALID,24.0643,VALID,57,VALID,0,
2010-10-02, 01:16:05,VALID,1005.42,VALID,0,VALID,103.337,VALID,0,VALID,24.0643,VALID,57,VALID,0,
2010-10-02, 01:17:05,VALID,1005.44,VALID,0,VALID,103.344,VALID,0,VALID,24.0856,VALID,57,VALID,0,
2010-10-02, 01:18:05,VALID,1005.46,VALID,0,VALID,103.321,VALID,0,VALID,24.0856,VALID,57,VALID,0,
2010-10-02, 01:19:05,VALID,1005.47,VALID,0,VALID,103.329,VALID,0,VALID,24.0643,VALID,56,VALID,0,
2010-10-02, 01:20:05,VALID,1005.47,VALID,0,VALID,103.337,VALID,0,VALID,24.0856,VALID,56,VALID,0,
2010-10-02, 01:21:05,VALID,1005.49,VALID,0,VALID,103.329,VALID,0,VALID,24.0856,VALID,56,VALID,0,
2010-10-02, 01:22:05,VALID,1005.47,VALID,0,VALID,103.344,VALID,0.105969,VALID,24.0624,VALID,56,VALID,0,
2010-10-02, 01:23:05,VALID,1005.45,VALID,0,VALID,103.344,VALID,0.105969,VALID,24.0624,VALID,56,VALID,0,
2010-10-02, 01:24:05,VALID,1005.46,VALID,0,VALID,103.337,VALID,0.105969,VALID,24.0624,VALID,56,VALID,0,
2010-10-02, 01:25:05,VALID,1005.45,VALID,0,VALID,103.329,VALID,0.105969,VALID,24.0624,VALID,56,VALID,0,
2010-10-02, 01:26:05,VALID,1005.42,VALID,0,VALID,103.321,VALID,0.105969,VALID,24.0429,VALID,56,VALID,0,
2010-10-02, 01:27:05,VALID,1005.43,VALID,0,VALID,103.344,VALID,0.105969,VALID,24.0624,VALID,56,VALID,0,
2010-10-02, 01:28:05,VALID,1005.41,VALID,0,VALID,103.329,VALID,0.105969,VALID,24.0624,VALID,56,VALID,0,
2010-10-02, 01:29:05,VALID,1005.38,VALID,0,VALID,103.321,VALID,0,VALID,24.0429,VALID,56,VALID,0,
2010-10-02, 01:30:05,VALID,1005.38,VALID,0,VALID,103.306,VALID,0.105969,VALID,24.0624,VALID,56,VALID,0,
2010-10-02, 01:31:05,VALID,1005.38,VALID,0,VALID,103.306,VALID,0.105969,VALID,24.0624,VALID,56,VALID,0,
2010-10-02, 01:32:05,VALID,1005.35,VALID,0,VALID,103.298,VALID,0,VALID,24.0643,VALID,56,VALID,0,
2010-10-02, 01:33:05,VALID,1005.38,VALID,0,VALID,103.298,VALID,0.105969,VALID,24.0643,VALID,56,VALID,0,
2010-10-02, 01:34:05,VALID,1005.37,VALID,0,VALID,103.321,VALID,0,VALID,24.0643,VALID,56,VALID,0,
2010-10-02, 01:35:05,VALID,1005.37,VALID,0,VALID,103.321,VALID,0,VALID,24.0429,VALID,56,VALID,0,
2010-10-02, 01:36:05,VALID,1005.36,VALID,0,VALID,103.298,VALID,0.105969,VALID,24.0429,VALID,56,VALID,0,
2010-10-02, 01:37:05,VALID,1005.36,VALID,0,VALID,103.314,VALID,0,VALID,24.0448,VALID,56,VALID,0,
2010-10-02, 01:38:05,VALID,1005.35,VALID,0,VALID,103.321,VALID,0,VALID,24.0253,VALID,56,VALID,0,
2010-10-02, 01:39:05,VALID,1005.36,VALID,0,VALID,103.329,VALID,0,VALID,24.0058,VALID,56,VALID,0,
2010-10-02, 01:40:05,VALID,1005.36,VALID,0,VALID,103.314,VALID,0,VALID,24.0058,VALID,56,VALID,0,
2010-10-02, 01:41:04,VALID,1005.37,VALID,0,VALID,103.306,VALID,0,VALID,23.9863,VALID,56,VALID,0,
2010-10-02, 01:42:04,VALID,1005.38,VALID,0,VALID,103.321,VALID,0,VALID,23.9668,VALID,56,VALID,0,
2010-10-02, 01:43:04,VALID,1005.37,VALID,0,VALID,103.314,VALID,0,VALID,23.9863,VALID,56,VALID,0,
2010-10-02, 01:44:04,VALID,1005.35,VALID,0,VALID,103.298,VALID,0,VALID,24.0076,VALID,56,VALID,0,
2010-10-02, 01:45:04,VALID,1005.35,VALID,0,VALID,103.291,VALID,0,VALID,23.9863,VALID,56,VALID,0,
2010-10-02, 01:46:04,VALID,1005.37,VALID,0,VALID,103.298,VALID,0,VALID,23.9668,VALID,56,VALID,0,
2010-10-02, 01:47:04,VALID,1005.37,VALID,0,VALID,103.283,VALID,0,VALID,23.9668,VALID,56,VALID,0,
2010-10-02, 01:48:04,VALID,1005.37,VALID,0,VALID,103.291,VALID,0,VALID,23.9668,VALID,56,VALID,0,
2010-10-02, 01:49:04,VALID,1005.36,VALID,0,VALID,103.283,VALID,0,VALID,23.9668,VALID,56,VALID,0,
2010-10-02, 01:50:04,VALID,1005.34,VALID,0,VALID,103.291,VALID,0,VALID,23.9668,VALID,56,VALID,0,
2010-10-02, 01:51:04,VALID,1005.34,VALID,0,VALID,103.283,VALID,0,VALID,23.9881,VALID,60,VALID,0.157813,
2010-10-02, 01:52:04,VALID,1005.32,VALID,0,VALID,103.268,VALID,0.211938,VALID,23.9845,VALID,60,VALID,0,
2010-10-02, 01:53:04,VALID,1005.3,VALID,0,VALID,103.26,VALID,0.105969,VALID,23.9845,VALID,60,VALID,0,
2010-10-02, 01:54:04,VALID,1005.27,VALID,0,VALID,103.253,VALID,0.105969,VALID,23.9845,VALID,60,VALID,0.0574219,
2010-10-02, 01:55:04,VALID,1005.28,VALID,0,VALID,103.237,VALID,0.105969,VALID,24.004,VALID,123,VALID,0.552734,
2010-10-02, 01:56:04,VALID,1005.26,VALID,0,VALID,103.237,VALID,0.105969,VALID,24.004,VALID,123,VALID,0.355469,
2010-10-02, 01:57:04,VALID,1005.26,VALID,0,VALID,103.23,VALID,0.105969,VALID,24.004,VALID,122,VALID,0.500781,
2010-10-02, 01:58:04,VALID,1005.27,VALID,0,VALID,103.23,VALID,0.105969,VALID,24.0235,VALID,119,VALID,0.642969,
2010-10-02, 01:59:04,VALID,1005.29,VALID,0,VALID,103.23,VALID,0.105969,VALID,24.004,VALID,102,VALID,0.450781,
2010-10-02, 02:00:04,VALID,1005.25,VALID,0,VALID,103.215,VALID,0.211938,VALID,24.004,VALID,91,VALID,0.428906,
2010-10-02, 02:01:04,VALID,1005.28,VALID,0,VALID,103.222,VALID,0.105969,VALID,24.004,VALID,91,VALID,0.367188,
2010-10-02, 02:02:04,VALID,1005.31,VALID,0,VALID,103.215,VALID,0.105969,VALID,24.004,VALID,91,VALID,0.491406,
2010-10-02, 02:03:04,VALID,1005.31,VALID,0,VALID,103.222,VALID,0.105969,VALID,24.0022,VALID,91,VALID,0.25625,
2010-10-02, 02:04:04,VALID,1005.31,VALID,0,VALID,103.215,VALID,0.105969,VALID,24.0235,VALID,91,VALID,0,
2010-10-02, 02:05:04,VALID,1005.32,VALID,0,VALID,103.215,VALID,0.211938,VALID,24.0235,VALID,91,VALID,0,
2010-10-02, 02:06:04,VALID,1005.3,VALID,0,VALID,103.215,VALID,0.105969,VALID,24.0235,VALID,91,VALID,0,
2010-10-02, 02:07:04,VALID,1005.3,VALID,0,VALID,103.199,VALID,0.105969,VALID,24.0448,VALID,102,VALID,0,
2010-10-02, 02:08:04,VALID,1005.29,VALID,0,VALID,103.207,VALID,0,VALID,24.0253,VALID,110,VALID,0,
2010-10-02, 02:09:04,VALID,1005.3,VALID,0,VALID,103.23,VALID,0,VALID,24.0253,VALID,113,VALID,0.585156,
2010-10-02, 02:10:04,VALID,1005.31,VALID,0,VALID,103.222,VALID,0,VALID,24.0058,VALID,107,VALID,0.540234,
2010-10-02, 02:11:04,VALID,1005.25,VALID,0,VALID,103.207,VALID,0,VALID,24.0058,VALID,115,VALID,0.680469,
2010-10-02, 02:12:04,VALID,1005.24,VALID,0,VALID,103.184,VALID,0,VALID,24.0253,VALID,128,VALID,0.837891,
2010-10-02, 02:13:04,VALID,1005.22,VALID,0,VALID,103.23,VALID,0,VALID,24.0253,VALID,117,VALID,0.6125,
2010-10-02, 02:14:04,VALID,1005.19,VALID,0,VALID,103.23,VALID,0,VALID,24.0253,VALID,117,VALID,0.772266,
2010-10-02, 02:15:04,VALID,1005.17,VALID,0,VALID,103.215,VALID,0.105969,VALID,24.0253,VALID,120,VALID,0.994922,
2010-10-02, 02:16:04,VALID,1005.16,VALID,0,VALID,103.199,VALID,0,VALID,24.0253,VALID,106,VALID,0.85625,
2010-10-02, 02:17:04,VALID,1005.13,VALID,0,VALID,103.23,VALID,0,VALID,24.0058,VALID,116,VALID,0.739453,
2010-10-02, 02:18:04,VALID,1005.14,VALID,0,VALID,103.222,VALID,0,VALID,24.0253,VALID,115,VALID,0.499219,
2010-10-02, 02:19:04,VALID,1005.13,VALID,0,VALID,103.215,VALID,0,VALID,24.0253,VALID,92,VALID,0.177734,
2010-10-02, 02:20:04,VALID,1005.1,VALID,0,VALID,103.245,VALID,0,VALID,24.0058,VALID,107,VALID,0.626953,
2010-10-02, 02:21:04,VALID,1005.13,VALID,0,VALID,103.23,VALID,0,VALID,24.004,VALID,89,VALID,0,
2010-10-02, 02:22:04,VALID,1005.16,VALID,0,VALID,103.23,VALID,0,VALID,24.0058,VALID,88,VALID,0.532422,
2010-10-02, 02:23:04,VALID,1005.17,VALID,0,VALID,103.23,VALID,0,VALID,24.0058,VALID,114,VALID,0.777344,
2010-10-02, 02:24:04,VALID,1005.18,VALID,0,VALID,103.23,VALID,0,VALID,24.0058,VALID,70,VALID,0.0613281,
2010-10-02, 02:25:04,VALID,1005.19,VALID,0,VALID,103.253,VALID,0.105969,VALID,24.0058,VALID,48,VALID,0.665234,
2010-10-02, 02:26:04,VALID,1005.2,VALID,0,VALID,103.253,VALID,0,VALID,24.0058,VALID,70,VALID,0.579297,
2010-10-02, 02:27:04,VALID,1005.23,VALID,0,VALID,103.26,VALID,0,VALID,24.0058,VALID,85,VALID,0.0988281,
2010-10-02, 02:28:04,VALID,1005.23,VALID,0,VALID,103.253,VALID,0,VALID,24.0058,VALID,67,VALID,0.474609,
2010-10-02, 02:29:04,VALID,1005.21,VALID,0,VALID,103.26,VALID,0,VALID,23.9863,VALID,60,VALID,0.0398437,
2010-10-02, 02:30:04,VALID,1005.25,VALID,0,VALID,103.276,VALID,0,VALID,23.9863,VALID,52,VALID,0.359375,
2010-10-02, 02:31:04,VALID,1005.28,VALID,0,VALID,103.283,VALID,0,VALID,23.9668,VALID,52,VALID,0,
2010-10-02, 02:32:04,VALID,1005.26,VALID,0,VALID,103.253,VALID,0,VALID,23.9863,VALID,52,VALID,0,
2010-10-02, 02:33:04,VALID,1005.27,VALID,0,VALID,103.268,VALID,0,VALID,23.9668,VALID,52,VALID,0.00117188,
2010-10-02, 02:34:04,VALID,1005.26,VALID,0,VALID,103.245,VALID,0,VALID,23.9863,VALID,355,VALID,0.253906,
2010-10-02, 02:35:04,VALID,1005.26,VALID,0,VALID,103.245,VALID,0,VALID,23.9668,VALID,225,VALID,0.369141,
2010-10-02, 02:36:04,VALID,1005.23,VALID,0,VALID,103.245,VALID,0,VALID,23.9863,VALID,170,VALID,0.748438,
2010-10-02, 02:37:04,VALID,1005.25,VALID,0,VALID,103.26,VALID,0.105969,VALID,23.965,VALID,168,VALID,0.412891,
2010-10-02, 02:38:04,VALID,1005.26,VALID,0,VALID,103.26,VALID,0,VALID,23.9668,VALID,168,VALID,0.339844,
2010-10-02, 02:39:04,VALID,1005.22,VALID,0,VALID,103.291,VALID,0.105969,VALID,23.965,VALID,182,VALID,0.715234,
2010-10-02, 02:40:04,VALID,1005.21,VALID,0,VALID,103.245,VALID,0.105969,VALID,23.9455,VALID,151,VALID,0.404297,
2010-10-02, 02:41:04,VALID,1005.19,VALID,0,VALID,103.276,VALID,0,VALID,23.9668,VALID,151,VALID,0.0714844,
2010-10-02, 02:42:04,VALID,1005.19,VALID,0,VALID,103.276,VALID,0.105969,VALID,23.9473,VALID,151,VALID,0.307031,
2010-10-02, 02:43:04,VALID,1005.18,VALID,0,VALID,103.26,VALID,0,VALID,23.9668,VALID,151,VALID,0.563281,
2010-10-02, 02:44:04,VALID,1005.2,VALID,0,VALID,103.283,VALID,0.105969,VALID,23.9473,VALID,147,VALID,0.377734,
2010-10-02, 02:45:04,VALID,1005.19,VALID,0,VALID,103.283,VALID,0.105969,VALID,23.9473,VALID,147,VALID,0.297656,
2010-10-02, 02:46:04,VALID,1005.17,VALID,0,VALID,103.26,VALID,0,VALID,23.926,VALID,147,VALID,0.417969,
2010-10-02, 02:47:04,VALID,1005.18,VALID,0,VALID,103.276,VALID,0,VALID,23.9473,VALID,147,VALID,0.230469,
2010-10-02, 02:48:04,VALID,1005.17,VALID,0,VALID,103.283,VALID,0.105969,VALID,23.9278,VALID,147,VALID,0,
2010-10-02, 02:49:04,VALID,1005.15,VALID,0,VALID,103.283,VALID,0,VALID,23.9278,VALID,147,VALID,0,
2010-10-02, 02:50:04,VALID,1005.18,VALID,0,VALID,103.268,VALID,0.105969,VALID,23.926,VALID,147,VALID,0,
2010-10-02, 02:51:04,VALID,1005.17,VALID,0,VALID,103.276,VALID,0,VALID,23.9278,VALID,147,VALID,0,
2010-10-02, 02:52:04,VALID,1005.15,VALID,0,VALID,103.26,VALID,0,VALID,23.9084,VALID,147,VALID,0,
2010-10-02, 02:53:04,VALID,1005.13,VALID,0,VALID,103.26,VALID,0,VALID,23.9278,VALID,147,VALID,0,
2010-10-02, 02:54:04,VALID,1005.13,VALID,0,VALID,103.26,VALID,0,VALID,23.9297,VALID,147,VALID,0,
2010-10-02, 02:55:04,VALID,1005.11,VALID,0,VALID,103.253,VALID,0,VALID,23.9084,VALID,147,VALID,0,
2010-10-02, 02:56:04,VALID,1005.09,VALID,0,VALID,103.26,VALID,0,VALID,23.9084,VALID,147,VALID,0,
2010-10-02, 02:57:04,VALID,1005.09,VALID,0,VALID,103.268,VALID,0,VALID,23.8889,VALID,147,VALID,0,
2010-10-02, 02:58:04,VALID,1005.05,VALID,0,VALID,103.276,VALID,0,VALID,23.9102,VALID,149,VALID,0.371094,
2010-10-02, 02:59:04,VALID,1005.05,VALID,0,VALID,103.276,VALID,0,VALID,23.8889,VALID,149,VALID,0.109375,
2010-10-02, 03:00:04,VALID,1005.01,VALID,0,VALID,103.283,VALID,0,VALID,23.9102,VALID,155,VALID,0.436719,
2010-10-02, 03:01:04,VALID,1004.99,VALID,0,VALID,103.291,VALID,0,VALID,23.8694,VALID,162,VALID,0.553516,
2010-10-02, 03:02:04,VALID,1004.97,VALID,0,VALID,103.306,VALID,0,VALID,23.8694,VALID,162,VALID,0.393359,
2010-10-02, 03:03:04,VALID,1004.94,VALID,0,VALID,103.321,VALID,0,VALID,23.8712,VALID,162,VALID,0.555078,
2010-10-02, 03:04:04,VALID,1004.94,VALID,0,VALID,103.306,VALID,0,VALID,23.8499,VALID,163,VALID,0.376953,
2010-10-02, 03:05:04,VALID,1004.91,VALID,0,VALID,103.321,VALID,0,VALID,23.8517,VALID,163,VALID,0.450391,
2010-10-02, 03:06:04,VALID,1004.92,VALID,0,VALID,103.321,VALID,0,VALID,23.8109,VALID,167,VALID,0.532422,
2010-10-02, 03:07:04,VALID,1004.89,VALID,0,VALID,103.321,VALID,0,VALID,23.8322,VALID,166,VALID,0.746484,
2010-10-02, 03:08:04,VALID,1004.87,VALID,0,VALID,103.321,VALID,0,VALID,23.7914,VALID,191,VALID,0.427344,
2010-10-02, 03:09:04,VALID,1004.88,VALID,0,VALID,103.337,VALID,0,VALID,23.7914,VALID,193,VALID,0.0117188,
2010-10-02, 03:10:04,VALID,1004.86,VALID,0,VALID,103.321,VALID,0,VALID,23.8127,VALID,193,VALID,0,
2010-10-02, 03:11:04,VALID,1004.86,VALID,0,VALID,103.337,VALID,0,VALID,23.7914,VALID,193,VALID,0.264453,
2010-10-02, 03:12:04,VALID,1004.79,VALID,0,VALID,103.314,VALID,0,VALID,23.8127,VALID,193,VALID,0,
2010-10-02, 03:13:04,VALID,1004.81,VALID,0,VALID,103.314,VALID,0,VALID,23.7914,VALID,193,VALID,0,
2010-10-02, 03:14:04,VALID,1004.75,VALID,0,VALID,103.298,VALID,0,VALID,23.8127,VALID,193,VALID,0.113672,
2010-10-02, 03:15:04,VALID,1004.75,VALID,0,VALID,103.306,VALID,0,VALID,23.7914,VALID,192,VALID,0,
2010-10-02, 03:16:04,VALID,1004.74,VALID,0,VALID,103.321,VALID,0,VALID,23.8127,VALID,192,VALID,0,
2010-10-02, 03:17:04,VALID,1004.74,VALID,0,VALID,103.321,VALID,0,VALID,23.772,VALID,192,VALID,0,
2010-10-02, 03:18:04,VALID,1004.73,VALID,0,VALID,103.337,VALID,0,VALID,23.772,VALID,192,VALID,0,
2010-10-02, 03:19:04,VALID,1004.73,VALID,0,VALID,103.329,VALID,0,VALID,23.7932,VALID,192,VALID,0,
2010-10-02, 03:20:04,VALID,1004.71,VALID,0,VALID,103.329,VALID,0,VALID,23.772,VALID,192,VALID,0,
2010-10-02, 03:21:04,VALID,1004.7,VALID,0,VALID,103.344,VALID,0,VALID,23.772,VALID,192,VALID,0,
2010-10-02, 03:22:04,VALID,1004.69,VALID,0,VALID,103.337,VALID,0,VALID,23.7525,VALID,192,VALID,0,
2010-10-02, 03:23:04,VALID,1004.67,VALID,0,VALID,103.321,VALID,0,VALID,23.7525,VALID,192,VALID,0,
2010-10-02, 03:24:04,VALID,1004.69,VALID,0,VALID,103.337,VALID,0,VALID,23.7312,VALID,192,VALID,0,
2010-10-02, 03:25:04,VALID,1004.68,VALID,0,VALID,103.314,VALID,0,VALID,23.7525,VALID,192,VALID,0,
2010-10-02, 03:26:04,VALID,1004.67,VALID,0,VALID,103.314,VALID,0,VALID,23.733,VALID,192,VALID,0,
2010-10-02, 03:27:04,VALID,1004.69,VALID,0,VALID,103.321,VALID,0,VALID,23.733,VALID,192,VALID,0,
2010-10-02, 03:28:04,VALID,1004.67,VALID,0,VALID,103.337,VALID,0,VALID,23.733,VALID,192,VALID,0,
2010-10-02, 03:29:04,VALID,1004.71,VALID,0,VALID,103.321,VALID,0,VALID,23.7135,VALID,192,VALID,0,
2010-10-02, 03:30:04,VALID,1004.71,VALID,0,VALID,103.329,VALID,0,VALID,23.7135,VALID,192,VALID,0,
2010-10-02, 03:31:04,VALID,1004.69,VALID,0,VALID,103.352,VALID,0,VALID,23.694,VALID,192,VALID,0,
2010-10-02, 03:32:04,VALID,1004.72,VALID,0,VALID,103.329,VALID,0,VALID,23.694,VALID,192,VALID,0,
2010-10-02, 03:33:04,VALID,1004.72,VALID,0,VALID,103.329,VALID,0,VALID,23.6958,VALID,192,VALID,0,
2010-10-02, 03:34:04,VALID,1004.74,VALID,0,VALID,103.321,VALID,0,VALID,23.694,VALID,192,VALID,0,
2010-10-02, 03:35:04,VALID,1004.74,VALID,0,VALID,103.329,VALID,0,VALID,23.6745,VALID,192,VALID,0,
2010-10-02, 03:36:04,VALID,1004.75,VALID,0,VALID,103.329,VALID,0,VALID,23.694,VALID,192,VALID,0.165234,
2010-10-02, 03:37:04,VALID,1004.74,VALID,0,VALID,103.314,VALID,0.105969,VALID,23.694,VALID,192,VALID,0.20625,
2010-10-02, 03:38:04,VALID,1004.74,VALID,0,VALID,103.314,VALID,0,VALID,23.694,VALID,192,VALID,0.0773437,
2010-10-02, 03:39:04,VALID,1004.72,VALID,0,VALID,103.298,VALID,0,VALID,23.694,VALID,192,VALID,0.367188,
2010-10-02, 03:40:04,VALID,1004.72,VALID,0,VALID,103.283,VALID,0.105969,VALID,23.6922,VALID,192,VALID,0.255078,
2010-10-02, 03:41:04,VALID,1004.73,VALID,0,VALID,103.276,VALID,0.105969,VALID,23.6727,VALID,131,VALID,0.529297,
2010-10-02, 03:42:04,VALID,1004.71,VALID,0,VALID,103.276,VALID,0.105969,VALID,23.7117,VALID,111,VALID,0.476953,
2010-10-02, 03:43:04,VALID,1004.71,VALID,0,VALID,103.26,VALID,0.105969,VALID,23.733,VALID,111,VALID,0.510938,
2010-10-02, 03:44:04,VALID,1004.68,VALID,0,VALID,103.237,VALID,0.105969,VALID,23.733,VALID,111,VALID,0.594531,
2010-10-02, 03:45:04,VALID,1004.68,VALID,0,VALID,103.245,VALID,0.105969,VALID,23.7117,VALID,111,VALID,0.342187,
2010-10-02, 03:46:04,VALID,1004.68,VALID,0,VALID,103.23,VALID,0.105969,VALID,23.733,VALID,105,VALID,0.438281,
2010-10-02, 03:47:04,VALID,1004.66,VALID,0,VALID,103.23,VALID,0.105969,VALID,23.733,VALID,105,VALID,0.277344,